Location: Madden
(51.3728°N, 114.3297°W)
Time: 05:32:01
(UTC+00:00)

PCSat - Pass Details

Date: 06 December 2023
Orbit: 784 x 791 km, 67.0° (Epoch: 02 March)

Event Time Altitude Azimuth Distance (km) Brightness Sun altitude
Exits shadow 11:57:50 50° 56° (NE) 996 10.2 -31.4°
Drops below altitude 10° 12:01:52 10° 40° (NE) 2,360 12.5 -30.7°
Sets 12:04:18 0° 39° (NE) 3,294 13.3 -30.4°
